Regional Weather Roundup
Issued by NWS

Home | Current Version | Previous Version | Text Only | Print | Product List | Glossary Off
Versions: 1 2 3 4 5 6 7 8 9 10 11 12 13 14 15 16 17 18 19 20 21 22 23 24 25 26 27 28 29 30 31 32 33 34 35 36 37 38 39 40 41 42 43 44 45 46 47 48 49 50

000
ASUS45 KBOU 282107
RWRCO

WEATHER ROUNDUP FOR COLORADO
NATIONAL WEATHER SERVICE DENVER/BOULDER CO
300 PM MDT MON JUL 28 2014

NOTE: "FAIR" INDICATES FEW OR NO CLOUDS BELOW 12000 FEET WITH NO
SIGNIFICANT WEATHER AND/OR OBSTRUCTIONS TO VISIBILITY.

COZ001>005-013-030-031-282200-
...NORTHWEST COLORADO...

CITY           SKY/WX    TMP DP  RH WIND       PRES   REMARKS
CRAIG          MOSUNNY   82  41  23 VRB5      30.29F
HAYDEN         MOSUNNY   86  34  15 CALM      30.31F
MEEKER         PTSUNNY   77  44  30 E20G30    30.34R
MOUNT WERNER   NOT AVBL
STEAMBOAT SPGS MOSUNNY   83  40  21 CALM      30.34S
WALDEN         MOSUNNY   79  36  21 NW12G26   30.44F
$$

COZ006>008-011-282200-
...WEST CENTRAL VALLEYS...

CITY           SKY/WX    TMP DP  RH WIND       PRES   REMARKS
GRAND JUNCTION PTSUNNY   86  52  30 W7        30.23F
MONTROSE       PTSUNNY   85  51  31 NW14      30.32S
EAGLE          LGT RAIN  77  48  36 W16G23    30.35R
RIFLE          PTSUNNY   85  47  26 W14G20    30.24F
DELTA          PTSUNNY   87  50  27 SW10G17   30.27S
NUCLA          PTSUNNY   79  46  31 SW5       30.39F
$$

COZ017>023-064>068-282200-
...SOUTHWEST COLORADO...

CITY           SKY/WX    TMP DP  RH WIND       PRES   REMARKS
DURANGO        PTSUNNY   76  52  43 SW6       30.38F
CORTEZ         SUNNY     85  49  28 W6        30.32F
PAGOSA SPRINGS PTSUNNY   76  42  28 CALM      30.45F
TELLURIDE      CLOUDY    63  52  67 S5        30.58F
WOLF CREEK PAS NOT AVBL
$$

COZ009-010-012-014-032>034-037-058>063-282200-
...CENTRAL COLORADO...

CITY           SKY/WX    TMP DP  RH WIND       PRES   REMARKS
ASPEN          CLOUDY    73  43  33 SE22G31   30.44R THUNDER
BUENA VISTA    TSTM      64  54  68 SE5       30.50R
COPPER MTN     CLOUDY    59  36  41 W15       30.78R THUNDER
BERTHOUD PASS  CLOUDY    45  32  61 E23       30.83R THUNDER
COTTONWOOD PAS TSTM      61  46  59 W8        30.63R
GUNNISON       CLOUDY    72  46  40 CALM      30.47F
KREMMLING      CLOUDY    79  28  15 W9G20     30.39S
LEADVILLE      LGT RAIN  57  44  62 S8        30.63R
MONARCH PASS   PTSUNNY   57  41  54 S18       30.87S
SALIDA         CLOUDY    78  49  35 SW8       30.49R
SUNLIGHT       CLOUDY    61  50  67 CALM      30.69F THUNDER
WILKERSON PASS NOT AVBL
$$

COZ069>075-282200-
...SAN LUIS VALLEY/SANGRE DE CRISTO MOUNTAINS...

CITY           SKY/WX    TMP DP  RH WIND       PRES   REMARKS
ALAMOSA        CLOUDY    74  55  51 VRB3      30.44F
LA VETA PASS   PTSUNNY   64  45  48 CALM      30.65S THUNDER
SAGUACHE       CLOUDY    66  52  59 CALM      30.50S
$$

COZ035-036-038>040-282200-
...NORTHERN COLORADO FRONT RANGE...

CITY           SKY/WX    TMP DP  RH WIND       PRES   REMARKS
DENVER INTL AP PTSUNNY   83  56  39 SE12      30.29S
DMNS CITY PARK   N/A     81  55  41 NW5       30.28F
AURORA         NOT AVBL
FRONT RANGE AP NOT AVBL
ERIE MUNI ARPT PTSUNNY   83  53  36 CALM      30.28S
BOULDER MUN AP PTSUNNY   81  55  41 NW8       30.30F
CENTENNIAL     CLOUDY    78  56  46 S13       30.32S THUNDER
BROOMFIELD     PTSUNNY   81  54  39 CALM      30.33S
FORT COLLINS   PTSUNNY   81  57  44 NW7       30.28S
LONGMONT       PTSUNNY   88  55  33 N3        30.30S
$$

COZ041-046-047-076>085-087-088-282200-
...PIKES PEAK/PALMER DIVIDE AND SOUTHERN FOOTHILLS...

CITY           SKY/WX    TMP DP  RH WIND       PRES   REMARKS
COLO. SPRINGS  CLOUDY    71  60  68 SE9       30.40F
A. F. ACADEMY  NOT AVBL
ELLICOTT       CLOUDY    70  58  65 S10       30.39S
FALCON         CLOUDY    68  58  70 SE8       30.45S
FORT CARSON    NOT AVBL
LIMON          MOSUNNY   77  56  48 SE17G23   30.34F
MONUMENT HILL  PTSUNNY   68  55  64 S15       30.44R
TRINIDAD       PTSUNNY   79  58  48 E6        30.32F
$$

COZ042>045-048>051-090-091-282200-
...NORTHEAST COLORADO...

CITY           SKY/WX    TMP DP  RH WIND       PRES   REMARKS
GREELEY ARPT   PTSUNNY   84  57  39 E6        30.26F
AKRON          PTSUNNY   85  53  33 SE15G25   30.27F
BURLINGTON     SUNNY     82  53  36 S15G23    30.30F
WRAY             N/A     91  51  25 S14G21    30.25S
STERLING       PTSUNNY   91  61  35 SE12      30.23S
HOLYOKE        PTSUNNY   88  55  33 SE14      30.25S
FORT MORGAN    PTSUNNY   90  54  29 SE17G23   30.25F
$$

COZ086-089-092>099-282200-
...SOUTHEAST COLORADO...

CITY           SKY/WX    TMP DP  RH WIND       PRES   REMARKS
PUEBLO         PTSUNNY   78  60  53 SE7       30.28F
LA JUNTA       PTSUNNY   82  60  47 SE12      30.26F
LAMAR          MOSUNNY   82  59  45 S20G25    30.25F
SPRINGFIELD      N/A     71  60  68 S16       30.34F
$$


USA.gov is the U.S. government's official web portal to all federal, state and local government web resources and services.